Satellite: FIREBIRD FU3 Catalog number: 40377 Epoch time: 15043.48018268 Element set: 999 Inclination: 099.1247 deg RA of node: 054.1100 deg Eccentricity: 0.0165742 Arg of perigee: 301.2304 deg Mean anomaly: 057.2587 deg Mean motion: 15.04640208 rev/day Decay rate: 1.9780e-04 rev/day^2 Epoch rev: 178 Checksum: 294
Satellite: FIREBIRD FU4 Catalog number: 40378 Epoch time: 15043.47994891 Element set: 999 Inclination: 099.1245 deg RA of node: 054.1103 deg Eccentricity: 0.0165781 Arg of perigee: 301.1779 deg Mean anomaly: 057.3061 deg Mean motion: 15.04670470 rev/day Decay rate: 1.9814e-04 rev/day^2 Epoch rev: 178 Checksum: 319
Satellite: GRIFEX Catalog number: 40379 Epoch time: 15043.48089946 Element set: 999 Inclination: 099.1275 deg RA of node: 054.1108 deg Eccentricity: 0.0165484 Arg of perigee: 302.1112 deg Mean anomaly: 056.3897 deg Mean motion: 15.04507235 rev/day Decay rate: 1.6262e-04 rev/day^2 Epoch rev: 178 Checksum: 311
/EX
participants (1)
-
Ray Hoad